Regional Weather Roundup
Issued by NWS Sioux Falls, SD

Home | Current Version | Previous Version | Graphics & Text | Print | Product List | Glossary On
Versions: 1 2 3 4 5 6 7 8 9 10 11 12 13 14 15 16 17 18 19 20 21 22 23 24 25 26 27 28 29 30 31 32 33 34 35 36 37 38 39 40 41 42 43 44 45 46 47 48 49 50
930
ASUS43 KFSD 232210
RWRFSD

WEATHER ROUNDUP FOR SE SOUTH DAKOTA/SW MINNESOTA/NW IOWA
NATIONAL WEATHER SERVICE SIOUX FALLS SD
400 PM CST MON JAN 23 2017

NOTE: "FAIR" INDICATES FEW OR NO CLOUDS BELOW 12,000 FEET WITH NO
SIGNIFICANT WEATHER AND OR OBSTRUCTIONS TO VISIBILITY.


SDZ038>040-050-052>070-232300-
SOUTHEAST SOUTH DAKOTA

CITY           SKY/WX    TMP DP  RH WIND       PRES   REMARKS
BROOKINGS      CLOUDY    30  26  85 E5        29.78S WCI  25
CHAMBERLAIN    CLOUDY    34  30  86 E13G21    29.69F WCI  25
HURON          CLOUDY    31  27  85 SE9       29.80R WCI  23
MADISON        CLOUDY    28  28 100 SE7         N/A  WCI  21
MITCHELL       CLOUDY    33  28  81 E12       29.79S WCI  24
SIOUX FALLS    CLOUDY    31  28  89 SE5       29.81R WCI  26
WINNER         CLOUDY    37  29  72 E20       29.62F
YANKTON        CLOUDY    32  27  80 E9        29.78S WCI  24
$$

MNZ071-072-080-081-089-090-097-098-232300-
SOUTHWEST MINNESOTA

CITY           SKY/WX    TMP DP  RH WIND       PRES   REMARKS
FAIRMONT       CLOUDY    32  30  92 N3        29.84R
JACKSON        CLOUDY    32  28  86 CALM      29.83R
LUVERNE        CLOUDY    30  27  86 E5        29.81R WCI  25
MARSHALL       CLOUDY    31  28  89 CALM      29.83R
MONTEVIDEO     CLOUDY    32  32 100 CALM      29.84R
PIPESTONE      CLOUDY    30  28  93 CALM      29.78S
REDWOOD FALLS  CLOUDY    33  27  78 W3        29.83R
TRACY          CLOUDY    32  29  88 CALM      29.82R
WINDOM         CLOUDY    30  28  93 CALM      29.82R
WORTHINGTON    CLOUDY    30  28  92 NE6       29.81S WCI  24
$$

IAZ001>003-012>014-020>022-031-032-NEZ013-014-SDZ071-232300-
NORTHWEST IOWA

CITY           SKY/WX    TMP DP  RH WIND       PRES   REMARKS
CHEROKEE       CLOUDY    32  31  94 CALM      29.83R
DENISON        CLOUDY    34  30  86 CALM      29.81R
ESTHERVILLE    CLOUDY    31  30  96 W3        29.82R
LE MARS        CLOUDY    32  28  86 E6        29.82S WCI  26
ORANGE CITY    CLOUDY    30  28  93 E3        29.80F
SHELDON        CLOUDY    32  32 100 SE5       29.81R WCI  27
SIOUX CITY     CLOUDY    34  29  82 SE9       29.82S WCI  27
SPENCER        CLOUDY    32  30  92 NE5       29.82S WCI  27
STORM LAKE     CLOUDY    32  28  86 CALM      29.81S
$$

ABBREVIATIONS USED IN REMARKS
   TC - TEMPERATURE IN CELSIUS
  WCI - WIND CHILL INDEX
   HX - HEAT INDEX
  VSB - VISIBILITY





USA.gov is the U.S. government's official web portal to all federal, state and local government web resources and services.